Lid_Strength_Index
-1 -1 -1 -1 -1 -1 -1 -1 -1 -1 -1 -1 -1 -1 -1 -1 -1 -1 -1 2 0 -1 -2 -2 -2 -2 -2 -2 -2 -2 -2 -2 -2 -2 -2 -2 -2 -2 -2 -2 -2 -2 -1
-1 -1 -1 -1 -1 -1 -1 -1 -1 -1 -1 -1 -0 -1 -1 -1 -1 -1 -1 -1 0 -1 -1 -1 -2 -2 -2 -2 -2 -2 -2 -2 -2 -2 -1 -2 -2 -2 -2 -2 -2 -2 -2
-1 -1 -1 -1 -1 -1 -1 -1 -1 -1 -0 -0 -0 -0 -1 -1 -1 -1 -1 -1 -1 1 0 -0 -1 -1 -1 -1 -2 -2 -2 -2 -1 -1 -1 -1 -1 -1 -1 -2 -1 -2 -2
-1 -1 -1 -0 -1 -1 -1 -0 -0 0 0 0 0 0 -0 -1 -1 -0 -1 -1 -1 -1 0 0 1 0 -1 -1 -1 -1 -1 -2 -2 -2 -1 -1 -1 -1 -1 -1 -1 -1 -1
-1 -1 -1 -1 -1 -1 -0 -0 0 0 1 1 0 0 -0 -0 -0 -0 -0 -1 -1 -1 -1 2 2 1 -1 -2 -2 -2 -2 -2 -2 -1 -1 -1 -2 -1 -1 -1 -1 -1 -1
-1 -1 -1 -1 -1 -0 -0 -0 0 0 0 1 1 1 0 -0 -0 -0 -0 -1 -1 -1 -1 1 2 3 2 1 0 -1 -1 -1 -1 -1 -1 -1 -1 -1 -1 -1 -1 -1 -1
-1 -1 -1 -0 -1 0 0 -0 0 1 1 -0 1 1 1 0 0 -0 -1 -0 -0 -0 1 1 1 2 3 4 3 2 0 0 1 1 1 1 1 1 0 0 -0 -0 -1
-1 -1 -1 -0 -0 0 0 0 0 1 0 0 2 2 4 2 1 0 -0 0 0 1 2 3 4 4 4 5 5 4 3 2 2 2 3 3 2 2 2 1 1 1 0
1 -1 -1 -0 -0 -0 0 0 0 1 2 1 1 2 5 5 3 1 1 2 2 3 4 5 6 6 6 7 7 6 6 5 4 4 4 4 3 3 3 3 3 2 2
2 2 0 0 0 1 1 0 1 0 1 2 1 1 1 2 5 5 2 3 4 4 6 6 7 8 7 7 8 8 7 7 7 6 5 5 5 4 4 3 3 3 3
4 4 3 3 3 3 3 2 2 1 0 1 2 2 2 2 2 4 5 4 5 7 8 8 8 9 10 10 10 9 9 9 8 8 7 6 6 5 5 4 4 4 3
5 5 5 4 4 4 4 4 3 2 2 1 1 1 2 3 3 3 4 3 4 8 9 9 9 9 10 11 12 12 11 10 9 9 8 6 6 7 6 5 4 4 4
6 6 6 5 6 6 6 4 4 4 4 3 3 3 3 3 3 3 3 3 4 7 9 10 10 10 11 12 13 12 12 11 9 9 8 6 8 8 7 6 5 5 4
6 7 7 7 7 7 6 5 5 5 5 4 5 4 5 5 5 5 4 4 5 5 8 11 11 11 11 12 13 11 11 12 10 8 7 8 9 8 7 7 6 6 5
7 7 7 7 7 7 6 6 6 6 5 5 6 6 6 7 7 7 7 6 6 8 7 11 11 10 10 10 13 11 12 12 11 9 8 10 9 8 8 7 7 7 6
8 8 8 7 7 7 7 6 6 6 6 6 6 7 7 8 9 9 9 9 8 7 8 7 9 10 10 11 12 11 12 11 12 10 9 10 10 9 8 8 8 8 7
8 9 9 9 8 8 8 7 7 7 7 8 8 8 9 10 10 10 10 9 10 9 9 10 9 10 11 11 11 11 11 11 11 11 10 10 10 10 9 9 9 9 8
9 9 9 9 9 9 9 9 8 8 9 10 10 11 12 11 10 10 9 10 9 10 10 10 10 10 11 11 11 11 11 11 11 11 11 11 11 11 10 10 10 10 9
9 9 9 10 10 9 9 9 9 10 10 10 11 10 10 10 10 10 10 10 10 11 10 10 11 10 10 10 12 11 12 12 12 12 12 12 12 12 11 11 11 11 10
10 9 10 10 10 10 11 11 11 11 11 10 10 10 10 10 10 10 10 10 10 10 11 11 11 11 11 12 12 14 14 12 13 12 13 13 12 12 12 12 12 12 10
10 10 10 10 11 11 11 11 11 10 10 11 10 11 10 11 11 11 10 11 11 11 11 12 12 12 12 14 15 14 15 14 13 13 15 14 14 13 13 13 13 12 11
11 11 11 11 11 11 10 9 10 10 11 11 12 12 12 12 12 12 12 11 11 12 12 12 13 14 15 15 15 15 15 16 17 14 16 16 13 13 14 14 13 12 11
11 11 11 11 11 10 10 10 9 10 11 11 12 12 13 13 12 13 12 12 12 12 12 13 14 15 16 15 16 16 16 17 17 16 16 17 14 15 14 15 13 12 12
12 12 11 11 11 11 10 9 10 11 11 11 12 12 13 13 12 13 13 14 14 14 14 14 14 15 15 15 15 16 17 17 16 15 16 18 15 16 15 15 13 13 12
11 11 11 11 11 11 10 9 10 12 12 12 12 12 13 13 12 12 14 14 15 15 14 14 14 15 15 15 16 16 17 18 18 16 16 19 17 18 17 17 14 13 13
12 12 12 11 11 11 9 9 10 12 13 13 13 13 12 13 12 12 14 14 15 15 15 16 17 16 16 17 17 17 17 19 19 20 18 20 19 19 21 16 16 16 15